www.pogodaiklimat.ru

Погода и климат >> Архив погоды >> Россия >> Свердловская область >> Таборы


ПОГОДА в Таборах

  • Прогноз погоды в Таборах
  • Монитор погоды в Таборах
  • Климат города

АРХИВ ПОГОДЫ в Таборах

Время (UTC), дата Ветер
(напр.,м/с)
 
Видим.   Явления Облачность Т
(С)
Тd
(С)
f
(%)
Тe
(С)
Тes
(С)
Комфортность P
(гПа)
Po
(гПа)
Тmin
(С)
Tmax
(С)
R
(мм)
S
(см)
03 16.03 ЮЗ 6 50 км 8/0
[Ac trans Ci fib]
-6.8 -13.8 57 -15 -14 1027.4 1019.3 -7.2 40
06 16.03 Ю 5
{10}
50 км 8/0
[Ci fib]
-2.3 -10.9 52 -8 -6 1027.0 1019.1
09 16.03 С 6 50 км 8/0
[Ci fib]
+2.1 -5.8 56 -3 -2 1026.5 1018.5
12 16.03 Ю 6-10
{11}
50 км 8/0
[Ci fib]
+1.5 -7.9 50 -4 -4 1025.8 1018.0
15 16.03 ЮЗ 5
{10}
50 км 8/0
[Ci fib]
-1.9 -9.7 55 -8 -8 1026.6 1018.7 +2.5
18 16.03 ЮЗ 5
{11}
50 км 3/0
[Ci fib]
-3.8 -8.7 69 -10 -10 1027.1 1019.1
21 16.03 ЮЗ 5 50 км 4/0
[Ci fib]
-5.3 -8.9 76 -12 -12 1027.0 1019.0
00 17.03 ЮЗ 4 50 км 4/0
[Ci fib]
-6.7 -9.4 81 -13 -13 1027.4 1019.3
03 17.03 Ю 3 50 км 8/0
[Ci fib]
-7.8 -10.1 84 -14 -13 1028.0 1019.9 -8.0 39
06 17.03 ЮЗ 6 50 км 3/0
[Ci fib]
-2.0 -8.7 60 -9 -7 1027.7 1019.8
09 17.03 Ю 4 50 км 3/0
[Ci fib]
+2.8 -8.7 42 -1 +2 1027.2 1019.4
12 17.03 Ю 4 50 км 1/0
[Ci fib]
+4.2 -8.3 40 +1 +1 1027.1 1019.4
15 17.03 Ю 3 50 км 4/0
[Ci fib]
+0.7 -9.1 48 -3 -3 1027.4 1019.6 +4.2
18 17.03 ЮЗ 4 50 км 3/0
[Ci fib]
-1.7 -8.1 62 -7 -7 1027.6 1019.7
00 18.03 Ю 2 50 км 4/0
[Ci fib]
-5.8 -9.7 74 -10 -10 1028.4 1020.3
03 18.03 Ю 3 50 км 10/0
[Ci fib]
-6.8 -10.7 74 -12 -12 1028.8 1020.7 -7.1 39
06 18.03 ЮВ 3 50 км 8/0
[Ci fib]
-0.9 -10.6 48 -5 -2 1028.6 1020.7
09 18.03 Ю 4 50 км 8/0
[Ci fib]
+1.6 -9.7 43 -3 0 1027.7 1019.9
12 18.03 Ю 4 50 км 8/0
[Ci fib]
+1.4 -12.8 34 -3 -2 1027.5 1019.7
15 18.03 Ю 3 50 км 9/0
[Ac trans]
-1.2 -13.0 40 -5 -5 1027.8 1019.9 +1.7
18 18.03 Ю 3 50 км 4/0
[Ci fib]
-2.7 -14.4 40 -7 -7 1027.9 1019.9
21 18.03 ЮЗ 4 50 км 3/0
[Ci fib]
-4.3 -15.7 41 -10 -10 1027.9 1019.9
00 19.03 Ю 3 50 км 4/0
[Ci fib]
-6.6 -16.9 44 -12 -12 1028.8 1020.7
03 19.03 Ю 2 50 км 8/0
[Ci fib]
-7.9 -16.8 49 -12 -11 1029.8 1021.7 -8.2 39
06 19.03 Ю 3 50 км 3/0
[Ci fib]
-3.1 -15.1 39 -7 -3 1029.6 1021.6
09 19.03 Ю 4 50 км 1/0
[Ci fib]
+2.0 -15.0 27 -2 +2 1029.2 1021.3
12 19.03 Ю 4 50 км 1/0
[Ci fib]
+3.5 -15.6 23 0 +1 1029.3 1021.5
15 19.03 Ю 4 50 км 3/0
[Ci fib]
-0.9 -17.0 28 -5 -5 1030.0 1022.1 +3.6
18 19.03 Ю 1 50 км 3/0
[Ci fib]
-3.3 -17.0 34 -5 -5 1030.2 1022.2
21 19.03 Ю 3 50 км 1/0
[Ci fib]
-5.3 -19.6 31 -10 -10 1030.6 1022.5
00 20.03 Ю 3 50 км 3/0
[Ci fib]
-5.9 -20.6 30 -11 -11 1031.2 1023.1
03 20.03 Ю 3 50 км 6/0
[Ci fib]
-6.0 -19.9 32 -11 -10 1032.0 1023.9 -6.9 39
06 20.03 Ю 4 50 км 4/0
[Ci fib]
-1.2 -18.6 25 -6 -3 1032.3 1024.4
09 20.03 Ю 5-10
{10}
50 км 3/0
[Ci fib]
+2.6 -20.2 17 -1 +1 1031.7 1023.9
12 20.03 Ю 5
{10}
50 км 3/0
[Ci fib]
+2.5 -16.1 24 -2 -1 1031.5 1023.7
15 20.03 Ю 3
{10}
50 км 8/0
[Ci fib]
-1.8 -16.7 31 -6 -6 1032.1 1024.2 +3.2
18 20.03 Ю 3 50 км 8/0
[Ci fib]
-4.2 -16.4 38 -9 -9 1032.1 1024.1
21 20.03 Ю 3 50 км 8/0
[Ci fib]
-5.9 -19.8 32 -11 -11 1032.3 1024.2
00 21.03 ЮВ 2 50 км 4/0
[Ci fib]
-8.2 -19.7 39 -12 -12 1033.2 1025.0
03 21.03 Ю 1 50 км 4/0
[Ci fib]
-8.1 -19.9 38 -10 -9 1033.8 1025.6 -9.7 38
06 21.03 Ю 3 50 км 4/0
[Ci fib]
-1.5 -15.2 34 -5 -1 1033.6 1025.6
09 21.03 Ю 5 50 км 3/0
[Ci fib]
+2.7 -15.6 25 -2 +1 1032.9 1025.1
12 21.03 ЮЗ 3 50 км 4/0
[Ci fib]
+3.3 -13.9 27 +1 +2 1032.7 1024.9
15 21.03 Ю 2 50 км 10/0
[Ci fib]
-2.1 -13.7 41 -5 -5 1033.2 1025.2 +3.5
18 21.03 Ю 2 50 км 8/0
[Ci fib]
-5.7 -14.5 50 -9 -9 1033.3 1025.2
21 21.03 Ю 3 50 км 4/0
[Ci fib]
-6.0 -15.8 46 -11 -11 1033.3 1025.2
00 22.03 Ю 2 50 км 6/0
[Ci fib]
-7.5 -15.4 53 -12 -12 1033.9 1025.7
03 22.03 ЮВ 2 50 км 10/0
[Ci fib]
-7.4 -14.6 56 -11 -11 1034.5 1026.3 -8.8 38
06 22.03 Ю 5
{10}
50 км 8/0
[Ci fib]
+0.4 -13.1 36 -5 -2 1033.9 1026.0
09 22.03 Ю 5 50 км 8/0
[Ci fib]
+4.2 -14.6 24 0 +3 1032.9 1025.1
12 22.03 Ю 4 50 км 8/0
[Ci fib]
+4.9 -15.8 21 +2 +3 1032.1 1024.3
15 22.03 Ю 3
{10}
50 км 9/0
[Ci fib]
+0.5 -13.8 33 -3 -3 1031.9 1024.0 +5.3
18 22.03 Ю 4 50 км 4/0
[Ci fib]
+0.1 -15.1 31 -4 -4 1031.1 1023.2
21 22.03 Ю 4 50 км 4/0
[Ci fib]
-1.2 -14.3 36 -6 -6 1031.1 1023.2

 

Местоположение метеостанции Таборы (Свердловская область, Россия): широта 58.53 долгота 64.50 высота над уровнем моря 63 м.

В архиве по умолчанию представлена погода в Таборах за последнюю неделю. Архивные данные за месяц целиком и за предыдущие месяцы, начиная с января 2011 года, Вы можете получить, выбрав интересующий диапазон дат из раскрывающегося списка и нажав кнопку "Ввод!".

Внимание! Время в таблицах - всемирное. Для получения местного времени необходимо прибавить поправку, которая в Таборах равна 5 ч.

Смотрите также архив погоды в соседних городах и на ближайших метеорологических станциях:

Погода в Тавде (Свердловская область, Россия) (68 км)
Погода в Туринске (Свердловская область, Россия) (72 км)
Погода в Куминской (Ханты-Мансийский АО, Россия) (94 км)
Погода в Ирбите (Свердловская область, Россия) (135 км)
Погода в Леушах (Ханты-Мансийский АО, Россия) (141 км)
Погода в Гари (Свердловская область, Россия) (160 км)
Погода в Тугулыме (Свердловская область, Россия) (163 км)
Погода в Тюмени (Тюменская область, Россия) (166 км)
Погода в Алапаевске (Свердловская область, Россия) (180 км)
Погода в Ярково (Тюменская область, Россия) (196 км)

Пояснения к столбцам:

Ветер - указаны скорость ветра в м/с - средняя за 10 мин, порывы в срок и между сроками (в фигурных скобках) и направление, откуда дует ветер: С - северный, СВ - северо-восточный, В - восточный, ЮВ - юго-восточный, Ю - южный, ЮЗ - юго-западный, З - западный, СЗ - северо-западный.
Видимость - горизонтальная дальность видимости в метрах или километрах. При видимости от 1 до 10 км при отсутствии осадков обычно наблюдается дымка, при ухудшении видимости до 1 км и менее - туман. В сухую погоду видимость может ухудшаться дымом, пылью или мглою.
Явления - указаны атмосферные явления, наблюдавшиеся в срок или в последний час перед сроком; фигурными скобками обозначены явления, наблюдавшиеся между сроками (за 1-3 часа до срока); квадратными скобками обозначены град или гололедные отложения с указанием их диаметра в мм.
Облачность - указаны через наклонную черту общая и нижняя облачность в баллах и высота нижней границы облаков в метрах; квадратными скобками обозначены формы облаков: Ci - перистые, Cs - перисто-слоистые, Cc - перисто-кучевые, Ac - высококучевые, As - высокослоистые, Sc - слоисто-кучевые, Ns - слоисто-дождевые, Cu - кучевые, Cb - кучево-дождевые. Подробнее классификацию облаков см. в Атласе облаков (PDF).
T - Температура воздуха - температура, измеренная на высоте 2 м над землей.
Td - Температура точки росы - температура, при понижении до которой содержащийся в воздухе водяной пар достигнет насыщения.
f - Относительная влажность воздуха - влажноcть воздуха, измеренная на высоте 2 м над землей.
Te - Эффективная температура - температура, которую ощущает одетый по сезону человек в тени. Характеристика душности погоды. При расчете учитывается влияние влажности воздуха и скорости ветра на теплоощущения человека.
Tes - Эффективная температура на солнце - температура, которую ощущает человек, с поправкой на солнечный нагрев. Характеристика знойности погоды. Зависит от высоты солнца над горизонтом, облачности и скорости ветра. Ночью, в пасмурную погоду, а также при ветре 12 м/с и более поправка равна нулю.
P - Атмосферное давление - приведенное к уровню моря атмосферное давление.
Po - Атмосферное давление - измеренное на уровне метеостанции атмосферное давление.
Tmin - Минимальная температура - минимум температуры воздуха на высоте 2 м над землей.
Tmax - Максимальная температура - максимум температуры воздуха на высоте 2 м над землей.
R - Количество осадков - Количество выпавших осадков, мм. При наведении курсора мыши на число - период времени, за который выпало указанное количество осадков.
S - Снежный покров - Высота снежного покрова, см. При наведении курсора мыши на число - состояние снежного покрова и степень покрытия местности в баллах.